Location: Ahausen
(50.4985°N, 8.2722°E)
Time: 16:04:00
(UTC+00:00)

Okean 1 Rocket - Pass Details

Date: 18 September 2020
Orbit: 606 x 635 km, 82.5° (Epoch: 21 October)

Event Time Altitude Azimuth Distance (km) Brightness Sun altitude
Exits shadow 19:51:19 52° 168° (SSE) 795 3.3 -21.6°
Maximum altitude 19:52:21 75° 98° (E) 662 2.9 -21.8°
Drops below altitude 10° 19:56:52 10° 13° (NNE) 2,035 5.9 -22.4°
Sets 19:59:07 0° 12° (NNE) 2,948 6.8 -22.7°
